• In Lithuania
  • List of Countries
  • For 7 days
  • Water Temperature
  • Satellite Maps
  • Weather Map
  • Weather Widgets
  • user-avatar
    Login

    Hourly Weather Ellenabad

    Today, 18 June, Monday

    Time Temperature Precipitation Wind Pressure Humidity
    00:00 +37°C° 0 mm 3 mps 732 mmHg 43%
    01:00 +37°C° 0 mm 4 mps 732 mmHg 44%
    02:00 +36°C° 0 mm 4 mps 732 mmHg 45%
    03:00 +36°C° 0 mm 3 mps 732 mmHg 46%
    04:00 +36°C° 0 mm 3 mps 732 mmHg 46%
    05:00 +36°C° 0 mm 2 mps 732 mmHg 47%
    06:00 +36°C° 0.2 mm 2 mps 732 mmHg 45%
    07:00 +37°C° 0.2 mm 3 mps 733 mmHg 43%
    08:00 +38°C° 0.2 mm 3 mps 733 mmHg 40%
    09:00 +39°C° 0 mm 3 mps 733 mmHg 37%
    10:00 +41°C° 0 mm 2 mps 733 mmHg 34%
    11:00 +42°C° 0 mm 2 mps 733 mmHg 31%
    12:00 +42°C° 0.1 mm 2 mps 733 mmHg 30%
    13:00 +43°C° 0.1 mm 2 mps 732 mmHg 29%
    14:00 +43°C° 0.1 mm 2 mps 732 mmHg 27%
    15:00 +45°C° 0 mm 2 mps 731 mmHg 26%
    16:00 +45°C° 0 mm 2 mps 730 mmHg 25%
    17:00 +45°C° 0 mm 2 mps 730 mmHg 24%
    18:00 +45°C° 0 mm 2 mps 730 mmHg 24%
    19:00 +45°C° 0 mm 2 mps 730 mmHg 25%
    20:00 +43°C° 0 mm 2 mps 730 mmHg 25%
    21:00 +43°C° 0 mm 2 mps 731 mmHg 26%
    22:00 +44°C° 0 mm 3 mps 731 mmHg 27%
    23:00 +43°C° 0 mm 3 mps 731 mmHg 27%

    Tomorrow, 19 June, Tuesday

    Time Temperature Precipitation Wind Pressure Humidity
    00:00 +42°C° 0.8 mm 4 mps 731 mmHg 31%
    01:00 +41°C° 0.8 mm 4 mps 731 mmHg 34%
    02:00 +40°C° 0.8 mm 4 mps 730 mmHg 37%
    03:00 +38°C° 0.3 mm 4 mps 731 mmHg 39%
    04:00 +37°C° 0.3 mm 3 mps 731 mmHg 41%
    05:00 +37°C° 0.3 mm 3 mps 731 mmHg 42%
    06:00 +38°C° 0 mm 3 mps 731 mmHg 40%
    07:00 +39°C° 0 mm 3 mps 732 mmHg 38%
    08:00 +40°C° 0 mm 3 mps 732 mmHg 36%
    09:00 +42°C° 0 mm 4 mps 732 mmHg 33%
    10:00 +43°C° 0 mm 4 mps 732 mmHg 30%
    11:00 +44°C° 0 mm 4 mps 732 mmHg 27%
    12:00 +45°C° 0 mm 4 mps 732 mmHg 25%
    13:00 +47°C° 0 mm 4 mps 732 mmHg 24%
    14:00 +48°C° 0 mm 4 mps 731 mmHg 22%
    15:00 +47°C° 0 mm 4 mps 731 mmHg 22%
    16:00 +47°C° 0 mm 4 mps 730 mmHg 22%
    17:00 +47°C° 0 mm 4 mps 730 mmHg 22%
    18:00 +47°C° 0.2 mm 4 mps 730 mmHg 23%
    19:00 +45°C° 0.2 mm 4 mps 730 mmHg 23%
    20:00 +45°C° 0.2 mm 4 mps 730 mmHg 24%
    21:00 +44°C° 0.3 mm 4 mps 730 mmHg 25%
    22:00 +43°C° 0.3 mm 4 mps 731 mmHg 26%
    23:00 +43°C° 0.3 mm 4 mps 731 mmHg 27%

    Day after tomorrow, 20 June, Wednesday

    Time Temperature Precipitation Wind Pressure Humidity
    00:00 +42°C° 0 mm 4 mps 731 mmHg 27%
    01:00 +42°C° 0 mm 3 mps 730 mmHg 28%
    02:00 +40°C° 0 mm 3 mps 730 mmHg 29%
    03:00 +40°C° 0 mm 3 mps 730 mmHg 30%
    04:00 +40°C° 0 mm 4 mps 730 mmHg 32%
    05:00 +40°C° 0 mm 4 mps 730 mmHg 34%
    06:00 +40°C° 0 mm 4 mps 731 mmHg 32%
    07:00 +41°C° 0 mm 5 mps 731 mmHg 29%
    08:00 +41°C° 0 mm 5 mps 732 mmHg 27%
    09:00 +43°C° 0 mm 4 mps 732 mmHg 24%
    10:00 +44°C° 0 mm 4 mps 732 mmHg 22%
    11:00 +46°C° 0 mm 3 mps 732 mmHg 19%
    12:00 +47°C° 0 mm 3 mps 731 mmHg 17%
    13:00 +47°C° 0 mm 2 mps 731 mmHg 16%
    14:00 +48°C° 0 mm 2 mps 730 mmHg 14%
    15:00 +48°C° 0 mm 2 mps 730 mmHg 14%
    16:00 +48°C° 0 mm 2 mps 730 mmHg 13%
    17:00 +47°C° 0 mm 1 mps 729 mmHg 13%
    18:00 +48°C° 0 mm 2 mps 730 mmHg 13%
    19:00 +47°C° 0 mm 2 mps 730 mmHg 14%
    20:00 +47°C° 0 mm 2 mps 730 mmHg 15%
    21:00 +46°C° 0 mm 2 mps 730 mmHg 15%
    22:00 +46°C° 0 mm 2 mps 730 mmHg 16%
    23:00 +45°C° 0 mm 3 mps 730 mmHg 16%

    21 June, Thursday

    Time Temperature Precipitation Wind Pressure Humidity
    00:00 +44°C° 0 mm 3 mps 730 mmHg 17%
    01:00 +44°C° 0 mm 3 mps 730 mmHg 18%
    02:00 +43°C° 0 mm 3 mps 729 mmHg 19%
    03:00 +43°C° 0 mm 4 mps 729 mmHg 21%
    04:00 +42°C° 0 mm 5 mps 730 mmHg 23%
    05:00 +41°C° 0 mm 5 mps 730 mmHg 24%
    06:00 +42°C° 0 mm 6 mps 730 mmHg 24%
    07:00 +44°C° 0 mm 6 mps 731 mmHg 24%
    08:00 +45°C° 0 mm 7 mps 731 mmHg 23%
    09:00 +46°C° 0 mm 6 mps 731 mmHg 21%
    10:00 +48°C° 0 mm 6 mps 731 mmHg 19%
    11:00 +49°C° 0 mm 5 mps 731 mmHg 17%
    12:00 +50°C° 0 mm 5 mps 730 mmHg 16%
    13:00 +50°C° 0 mm 5 mps 730 mmHg 15%
    14:00 +50°C° 0 mm 4 mps 729 mmHg 13%
    15:00 +50°C° 0 mm 4 mps 729 mmHg 13%
    16:00 +50°C° 0 mm 4 mps 729 mmHg 13%
    17:00 +50°C° 0 mm 3 mps 729 mmHg 13%
    18:00 +48°C° 0.1 mm 3 mps 729 mmHg 14%
    19:00 +47°C° 0.1 mm 3 mps 729 mmHg 15%
    20:00 +46°C° 0.1 mm 3 mps 729 mmHg 16%
    21:00 +47°C° 0.1 mm 4 mps 729 mmHg 17%
    22:00 +46°C° 0.1 mm 5 mps 729 mmHg 18%
    23:00 +45°C° 0.1 mm 6 mps 729 mmHg 20%

    22 June, Friday

    Time Temperature Precipitation Wind Pressure Humidity
    00:00 +45°C° 0 mm 6 mps 729 mmHg 21%
    01:00 +44°C° 0 mm 6 mps 729 mmHg 22%
    02:00 +44°C° 0 mm 6 mps 729 mmHg 23%
    03:00 +44°C° 0 mm 7 mps 729 mmHg 25%
    04:00 +43°C° 0 mm 7 mps 729 mmHg 28%
    05:00 +43°C° 0 mm 7 mps 729 mmHg 30%
    06:00 +43°C° 0 mm 8 mps 730 mmHg 30%
    07:00 +44°C° 0 mm 8 mps 730 mmHg 30%
    08:00 +44°C° 0 mm 8 mps 731 mmHg 31%
    09:00 +45°C° 0 mm 8 mps 731 mmHg 29%
    10:00 +46°C° 0 mm 8 mps 731 mmHg 27%
    11:00 +47°C° 0 mm 7 mps 731 mmHg 25%
    12:00 +49°C° 0 mm 7 mps 731 mmHg 23%
    13:00 +49°C° 0 mm 7 mps 730 mmHg 21%
    14:00 +49°C° 0 mm 6 mps 730 mmHg 19%
    15:00 +49°C° 0 mm 6 mps 729 mmHg 18%
    16:00 +49°C° 0 mm 6 mps 729 mmHg 17%
    17:00 +49°C° 0 mm 5 mps 729 mmHg 16%
    18:00 +48°C° 0 mm 5 mps 729 mmHg 17%
    19:00 +47°C° 0 mm 4 mps 729 mmHg 18%
    20:00 +45°C° 0 mm 3 mps 729 mmHg 19%
    21:00 +44°C° 0 mm 3 mps 729 mmHg 20%
    22:00 +44°C° 0 mm 3 mps 729 mmHg 20%
    23:00 +42°C° 0 mm 2 mps 730 mmHg 21%

    23 June, Saturday

    Time Temperature Precipitation Wind Pressure Humidity
    00:00 +43°C° 0 mm 4 mps 729 mmHg 21%
    01:00 +42°C° 0 mm 6 mps 729 mmHg 22%
    02:00 +43°C° 0 mm 7 mps 729 mmHg 22%
    03:00 +41°C° 0 mm 7 mps 729 mmHg 26%
    04:00 +41°C° 0 mm 7 mps 729 mmHg 31%
    05:00 +40°C° 0 mm 7 mps 729 mmHg 35%
    06:00 +40°C° 0 mm 7 mps 730 mmHg 36%
    07:00 +40°C° 0 mm 7 mps 730 mmHg 36%
    08:00 +40°C° 0 mm 7 mps 731 mmHg 37%
    09:00 +43°C° 0 mm 7 mps 731 mmHg 32%
    10:00 +44°C° 0 mm 7 mps 731 mmHg 28%
    11:00 +45°C° 0 mm 6 mps 731 mmHg 24%
    12:00 +46°C° 0 mm 6 mps 731 mmHg 20%
    13:00 +48°C° 0 mm 5 mps 730 mmHg 17%
    14:00 +49°C° 0 mm 5 mps 730 mmHg 14%
    15:00 +49°C° 0 mm 5 mps 730 mmHg 13%
    16:00 +49°C° 0 mm 5 mps 729 mmHg 12%
    17:00 +49°C° 0 mm 5 mps 729 mmHg 11%
    18:00 +48°C° 0 mm 4 mps 729 mmHg 12%
    19:00 +47°C° 0 mm 4 mps 729 mmHg 13%
    20:00 +45°C° 0 mm 3 mps 729 mmHg 14%
    21:00 +44°C° 0 mm 3 mps 730 mmHg 15%
    22:00 +43°C° 0 mm 3 mps 730 mmHg 16%
    23:00 +43°C° 0 mm 3 mps 730 mmHg 17%
    Show more